Location: Emblem
(62.4273°N, 6.4710°E)
Time: 18:22:39
(UTC+01:00)

Transit 2A - Visible Passes

Search period start: 30 January 2023 00:00
Search period end: 09 February 2023 00:00
Orbit: 594 x 962 km, 66.7° (Epoch: 29 January)

Date Brightness Start Highest point End Pass type
(mag) Time Alt. Az. Time Alt. Az. Time Alt. Az.
30 Jan 7.5 18:03:50 10° SSE 18:07:14 18° ESE 18:09:19 15° E visible
30 Jan 6.1 19:44:22 10° SSW 19:49:20 57° SE 19:49:49 54° ESE visible
30 Jan 7.4 21:27:17 10° WSW 21:30:18 36° W 21:30:18 36° W visible
31 Jan 7.8 17:30:29 10° SE 17:33:05 14° ESE 17:35:46 10° ENE visible
31 Jan 6.3 19:10:05 10° SSW 19:14:56 46° SE 19:16:42 34° E visible
31 Jan 6.4 20:52:42 10° WSW 20:57:12 65° W 20:57:12 65° W visible
31 Jan 8.4 22:36:21 10° W 22:37:41 18° WNW 22:37:41 18° WNW visible
01 Feb 6.6 18:35:55 10° S 18:40:34 37° SE 18:43:32 22° ENE visible
01 Feb 6.0 20:18:10 10° WSW 20:23:24 87° NNW 20:24:01 72° NE visible
01 Feb 7.7 22:01:43 10° W 22:04:30 31° WNW 22:04:30 31° WNW visible
02 Feb 7.0 18:01:52 10° S 18:06:16 30° ESE 18:10:17 13° ENE visible
02 Feb 6.0 19:43:40 10° SW 19:48:52 82° SE 19:50:46 43° ENE visible
02 Feb 6.9 21:27:05 10° W 21:31:14 49° WNW 21:31:14 49° WNW visible
02 Feb 8.6 23:10:45 10° WNW 23:11:43 16° WNW 23:11:43 16° WNW visible
03 Feb 7.3 17:27:57 10° SSE 17:32:00 24° ESE 17:36:23 10° ENE visible
03 Feb 6.0 19:09:14 10° SW 19:14:22 70° SE 19:17:28 27° ENE visible
03 Feb 6.4 20:52:27 10° W 20:57:47 64° NNW 20:57:56 63° N visible
03 Feb 8.1 22:36:09 10° WNW 22:38:25 25° WNW 22:38:25 25° WNW visible
04 Feb 6.2 18:34:52 10° SSW 18:39:55 58° SE 18:44:06 18° ENE visible
04 Feb 6.3 20:17:50 10° WSW 20:23:09 69° NNW 20:24:35 50° NE visible
04 Feb 7.4 22:01:32 10° WNW 22:05:03 38° NW 22:05:03 38° NW visible
04 Feb 8.8 23:45:00 10° WNW 23:45:32 13° WNW 23:45:32 13° WNW visible
05 Feb 6.5 18:00:34 10° SSW 18:05:29 48° SE 18:10:43 11° ENE visible
05 Feb 6.2 19:43:14 10° WSW 19:48:33 76° NNW 19:51:11 34° NE visible
05 Feb 6.8 21:26:54 10° W 21:31:40 53° NNW 21:31:40 53° NNW visible
05 Feb 8.4 23:10:27 10° WNW 23:12:07 20° WNW 23:12:07 20° WNW visible
06 Feb 6.1 19:08:41 10° WSW 19:13:58 86° NNW 19:17:45 23° ENE visible
06 Feb 6.5 20:52:15 10° W 20:57:41 58° N 20:58:14 55° NNE visible
06 Feb 7.8 22:35:52 10° WNW 22:38:42 31° NW 22:38:42 31° NW visible
07 Feb 6.1 18:34:10 10° SW 18:39:26 83° SE 18:44:19 15° ENE visible
07 Feb 6.5 20:17:36 10° W 20:23:02 60° N 20:24:46 42° NE visible
07 Feb 7.2 22:01:17 10° WNW 22:05:14 44° NW 22:05:14 44° NW visible
07 Feb 8.6 23:44:37 10° WNW 23:45:43 16° WNW 23:45:43 16° WNW visible
08 Feb 6.2 17:59:43 10° SW 18:04:55 72° SE 18:10:45 10° ENE visible
08 Feb 6.5 19:42:58 10° W 19:48:22 63° NNW 19:51:18 30° ENE visible
08 Feb 6.7 21:26:40 10° WNW 21:31:46 57° NNW 21:31:46 57° NNW visible
08 Feb 8.2 23:10:04 10° WNW 23:12:14 24° WNW 23:12:14 24° WNW visible
